TimeEST,TemperatureF,Dew PointF,Humidity,Sea Level PressureIn,VisibilityMPH,Wind Direction,Wind SpeedMPH,Gust SpeedMPH,PrecipitationIn,Events,Conditions,WindDirDegrees,DateUTC
12:54 AM,37.0,18.0,46,30.00,10.0,NW,4.6,-,N/A,,Clear,310,2012-11-09 05:54:00
1:54 AM,37.0,18.0,46,30.01,10.0,WNW,6.9,-,N/A,,Clear,300,2012-11-09 06:54:00
2:54 AM,32.0,19.9,61,30.02,10.0,WNW,4.6,-,N/A,,Clear,290,2012-11-09 07:54:00
3:54 AM,35.1,19.9,54,30.04,10.0,WNW,6.9,-,N/A,,Clear,300,2012-11-09 08:54:00
4:54 AM,36.0,19.0,50,30.06,10.0,WNW,8.1,-,N/A,,Clear,300,2012-11-09 09:54:00
5:54 AM,33.1,19.9,59,30.07,10.0,WNW,6.9,-,N/A,,Clear,290,2012-11-09 10:54:00
6:54 AM,36.0,21.9,57,30.10,10.0,WNW,8.1,-,N/A,,Clear,300,2012-11-09 11:54:00
7:54 AM,39.0,25.0,57,30.12,10.0,WNW,5.8,-,N/A,,Clear,300,2012-11-09 12:54:00
8:54 AM,43.0,28.0,56,30.14,10.0,NW,8.1,16.1,N/A,,Clear,320,2012-11-09 13:54:00
9:54 AM,46.0,28.9,51,30.14,10.0,WNW,11.5,-,N/A,,Clear,290,2012-11-09 14:54:00
10:54 AM,48.9,28.0,44,30.14,10.0,NNW,11.5,20.7,N/A,,Clear,340,2012-11-09 15:54:00
11:54 AM,52.0,28.0,40,30.13,10.0,NNW,15.0,20.7,N/A,,Clear,330,2012-11-09 16:54:00
12:54 PM,53.1,28.9,40,30.12,10.0,WNW,10.4,-,N/A,,Clear,290,2012-11-09 17:54:00
1:54 PM,54.0,30.0,40,30.12,10.0,WNW,11.5,-,N/A,,Clear,300,2012-11-09 18:54:00
2:54 PM,54.0,30.9,41,30.12,10.0,WNW,11.5,-,N/A,,Clear,290,2012-11-09 19:54:00
3:54 PM,53.1,32.0,45,30.13,10.0,West,9.2,-,N/A,,Clear,280,2012-11-09 20:54:00
4:54 PM,48.9,32.0,52,30.14,10.0,WNW,6.9,-,N/A,,Clear,290,2012-11-09 21:54:00
5:54 PM,39.9,33.1,77,30.17,10.0,Calm,Calm,-,N/A,,Clear,0,2012-11-09 22:54:00
6:54 PM,37.0,33.1,86,30.19,10.0,Calm,Calm,-,N/A,,Clear,0,2012-11-09 23:54:00
7:54 PM,36.0,32.0,86,30.19,10.0,Calm,Calm,-,N/A,,Clear,0,2012-11-10 00:54:00
8:54 PM,34.0,32.0,92,30.21,10.0,Calm,Calm,-,N/A,,Clear,0,2012-11-10 01:54:00
9:54 PM,34.0,32.0,92,30.22,10.0,Calm,Calm,-,N/A,,Clear,0,2012-11-10 02:54:00
10:54 PM,32.0,30.0,92,30.23,8.0,Calm,Calm,-,N/A,,Clear,0,2012-11-10 03:54:00
11:54 PM,32.0,30.0,92,30.24,8.0,Calm,Calm,-,N/A,,Clear,0,2012-11-10 04:54:00